Wind_Speed
35 34 33 33 33 34 36 37 39 38 38 38 38 38 39 38 38 38 39 40 40 42 42 43 43 43 44 45 45 44 44 43 43 43 43 43 43 43 43 43 42 43 43 43
35 34 34 34 34 34 35 36 37 39 39 38 39 39 38 38 37 37 39 39 40 41 41 41 42 43 43 43 43 43 44 44 43 44 44 44 44 44 43 43 43 43 44 44
35 34 35 35 34 34 34 34 35 35 35 36 36 37 38 37 37 37 38 39 40 40 41 41 42 41 41 42 43 43 44 44 44 44 44 44 44 43 43 43 43 44 44 44
36 35 34 33 33 33 33 33 34 35 34 34 34 35 35 36 37 37 37 37 38 38 38 39 40 41 41 42 42 42 43 43 44 45 44 44 44 44 44 44 44 44 44 44
35 35 34 32 31 31 31 31 32 33 33 34 33 32 33 34 36 36 36 37 37 37 37 37 38 38 39 40 41 41 42 43 44 44 44 44 44 44 43 43 44 43 43 43
35 34 33 32 32 31 31 30 30 31 32 33 33 33 33 34 35 36 37 37 38 38 37 37 36 36 37 38 39 40 41 42 42 42 43 43 43 43 43 43 42 42 42 41
33 33 32 31 30 29 30 30 30 29 30 31 32 33 34 34 35 35 36 37 37 37 37 36 36 36 37 37 38 39 40 41 41 41 40 41 41 41 41 41 41 40 40 40
30 30 29 29 29 28 28 28 28 28 30 31 31 32 33 34 34 35 35 35 35 36 36 36 37 37 36 36 37 38 39 39 39 39 39 39 39 39 39 39 38 38 38 38
29 29 29 28 28 28 28 27 27 28 29 30 31 32 32 33 34 35 35 35 35 36 37 36 37 37 37 37 37 36 37 37 37 37 37 37 37 36 36 36 36 36 36 36
28 28 28 28 28 28 28 28 29 30 30 31 31 30 30 31 32 33 34 34 35 36 36 36 37 37 36 36 36 36 36 35 35 35 35 35 34 34 34 33 33 34 34 34
28 28 28 27 28 28 28 29 29 29 30 30 29 29 29 29 30 31 32 33 34 34 35 35 36 36 36 34 33 33 33 33 33 32 32 33 33 32 32 32 32 32 33 33
28 28 28 27 28 28 29 29 29 29 28 28 29 28 28 28 28 29 30 30 31 32 32 33 34 34 34 33 32 32 31 30 30 30 30 31 31 31 31 31 30 30 31 32
28 28 28 28 28 28 29 30 30 29 28 27 27 27 27 27 27 27 28 29 29 30 30 31 32 32 32 32 32 32 32 31 30 30 30 30 30 29 30 30 30 29 29 30
29 28 28 28 28 28 29 29 29 29 28 27 27 26 26 26 26 25 26 27 28 28 28 29 29 30 30 31 31 31 32 32 31 29 29 29 29 29 29 29 29 28 29 29
28 27 27 26 27 27 28 29 29 29 28 28 27 27 26 25 25 25 25 26 27 27 28 28 28 28 29 29 30 30 30 30 30 30 29 29 29 29 29 29 29 28 28 28
26 26 26 26 26 27 27 27 27 27 27 26 26 26 25 25 25 24 25 25 26 26 26 26 27 28 28 29 29 29 29 29 29 29 29 29 30 29 29 28 29 28 28 28
24 24 24 24 25 25 25 25 25 24 24 24 24 24 24 24 23 23 23 23 23 24 25 26 26 27 27 27 26 26 27 27 29 30 30 30 29 29 29 29 28 27 27 26
24 24 23 23 23 24 24 23 22 22 22 22 23 23 23 23 22 22 22 23 23 23 23 24 24 25 25 25 25 25 25 26 27 28 29 29 29 29 29 28 28 27 27 26
23 23 23 23 23 23 23 22 22 22 21 21 21 21 21 21 21 21 21 21 21 21 22 23 23 23 24 25 25 25 25 25 25 26 27 27 28 28 27 27 27 27 27 26
23 23 23 23 22 22 22 22 22 22 21 21 20 20 19 19 19 20 21 21 21 21 22 22 22 23 24 25 25 25 24 24 24 25 26 26 26 26 26 27 27 27 27 27
23 23 23 23 23 23 23 22 22 22 21 20 19 19 18 18 18 19 19 19 20 20 21 21 22 21 22 23 24 24 24 24 24 25 25 26 26 26 26 26 27 27 27 27
23 23 23 23 23 23 22 22 21 21 20 19 19 18 18 17 18 18 18 18 19 19 19 20 20 20 20 21 22 23 24 24 24 25 26 26 26 26 26 27 27 26 27 27
24 23 23 23 23 22 22 22 21 20 19 19 18 18 17 17 17 17 18 18 18 18 19 19 20 20 20 20 21 22 23 23 24 25 25 25 26 26 26 26 27 27 27 27
24 24 24 23 22 22 22 21 20 20 19 18 18 18 17 16 16 16 17 17 18 18 18 19 19 19 20 20 21 21 22 23 24 25 25 26 26 26 26 26 27 27 28 28
24 24 23 23 22 22 21 21 21 20 19 19 18 18 17 16 15 15 16 17 18 18 18 19 19 19 20 21 21 22 22 23 24 25 26 26 26 26 27 27 27 27 27 28
24 24 23 23 23 22 22 22 22 21 20 19 18 18 17 17 16 16 17 17 18 18 18 19 20 20 20 21 21 22 22 23 24 25 26 26 26 27 27 27 27 27 27 28
24 23 23 22 22 22 22 22 22 21 20 19 19 18 18 18 18 18 18 18 18 19 19 20 20 20 21 21 22 22 23 23 23 24 25 25 26 26 27 27 27 27 27 27
Wind_Direction
294 292 289 285 281 278 276 274 272 270 269 267 264 262 260 259 259 258 256 254 252 252 252 252 253 253 252 251 253 253 253 254 255 255 256 256 257 258 259 260 260 261 261 261
293 291 288 285 283 281 279 275 273 271 269 266 264 262 261 259 258 257 256 255 253 252 252 252 253 253 252 251 252 253 253 254 254 254 255 256 257 258 260 261 261 261 262 262
293 290 288 285 286 283 282 279 275 273 271 268 264 261 260 258 257 257 257 256 256 255 253 253 253 252 251 252 253 253 254 255 255 255 256 256 257 259 260 261 262 262 262 262
293 291 287 288 286 286 284 280 276 274 272 269 267 264 260 258 258 257 257 257 256 254 254 254 253 253 252 252 253 254 254 256 257 258 258 258 258 259 261 262 263 264 264 263
293 290 289 287 287 287 285 280 277 273 271 269 268 263 259 258 257 257 257 257 256 254 254 254 255 254 253 252 252 253 254 255 257 258 258 259 260 260 262 262 262 263 263 263
293 290 289 289 288 286 284 280 277 274 271 269 266 262 259 258 257 257 257 257 256 255 254 254 255 255 254 254 254 253 255 256 257 258 258 259 260 261 262 262 262 261 262 261
293 291 289 289 288 286 281 280 277 274 271 269 268 266 263 261 260 258 257 256 255 255 253 254 255 256 256 257 257 257 257 257 258 259 259 260 261 260 261 261 261 261 260 260
293 290 289 289 288 285 282 281 278 275 273 271 271 269 267 263 261 259 258 256 255 255 254 255 256 257 257 258 259 259 259 259 258 258 258 259 260 261 261 260 259 259 259 258
294 292 290 289 287 286 284 281 279 278 277 276 275 273 270 266 262 260 259 257 257 257 257 257 258 258 259 259 259 260 259 259 258 257 258 258 259 260 260 259 258 257 257 256
294 292 290 288 287 285 284 282 281 281 280 279 279 278 274 271 266 262 260 259 259 258 258 258 258 258 259 259 260 261 260 259 258 257 257 257 257 258 257 257 256 256 256 256
294 292 289 288 285 284 284 284 284 284 283 280 278 277 275 273 269 264 261 259 260 259 258 257 257 257 258 259 260 261 260 258 256 255 255 255 256 255 256 256 256 255 255 256
295 293 289 287 285 284 283 284 285 284 284 283 279 276 275 275 273 268 263 260 259 259 258 257 256 256 256 257 259 259 258 258 257 255 254 254 254 254 255 255 255 256 256 256
297 296 293 290 287 285 284 284 285 285 284 283 282 279 276 275 273 270 265 260 258 257 257 257 257 257 257 258 259 259 259 258 256 255 254 252 252 253 254 254 254 255 256 256
298 298 297 294 291 287 285 285 286 286 286 284 283 281 278 275 273 270 266 262 258 257 257 257 258 258 258 258 258 258 258 256 254 253 252 251 251 252 253 252 253 254 255 256
300 300 299 296 294 293 291 288 287 286 286 285 283 281 278 276 274 271 268 264 260 258 257 257 257 258 259 258 258 257 255 254 252 250 250 250 250 251 251 251 252 252 253 254
300 299 298 298 297 297 296 294 292 290 287 286 284 281 278 276 273 272 270 266 262 259 256 255 256 258 259 258 257 256 254 253 252 250 249 250 251 250 251 251 250 251 253 254
301 299 299 298 299 299 299 297 294 292 290 287 285 282 279 275 272 270 268 266 264 261 258 255 255 255 256 255 255 255 254 253 252 249 248 249 250 250 249 249 249 250 252 254
304 303 303 304 303 303 303 302 300 298 295 290 286 283 279 275 271 268 266 265 263 262 261 258 255 253 253 253 253 253 254 253 252 249 248 248 248 249 249 249 249 250 250 251
307 307 307 308 307 305 304 303 302 302 300 296 291 285 280 274 272 269 266 264 263 262 262 260 257 253 251 251 251 252 251 251 251 250 249 247 246 246 246 246 247 248 249 250
308 309 310 311 310 308 306 306 304 303 301 297 293 288 283 277 273 271 268 265 263 262 262 261 258 255 253 251 250 250 250 250 250 250 249 246 244 244 244 244 245 247 248 250
307 308 309 309 310 309 307 306 306 304 302 299 295 290 284 279 275 272 269 266 264 262 261 260 258 256 255 253 250 249 249 249 249 249 247 244 243 244 244 244 245 247 249 251
306 307 307 308 308 308 308 307 306 304 301 298 296 292 287 281 277 273 270 267 265 263 261 260 260 258 256 254 252 251 251 249 248 247 245 244 243 243 244 245 247 248 250 252
305 305 306 307 308 309 309 308 306 303 300 298 296 295 290 283 277 274 272 270 266 263 261 260 259 258 257 254 253 252 251 250 250 248 246 244 244 244 245 247 249 251 252 254
304 304 305 306 307 307 308 309 310 307 303 300 297 296 292 285 280 277 273 270 267 264 262 261 260 258 257 255 255 254 253 251 250 249 247 245 245 245 247 249 251 253 255 256
303 303 303 305 305 305 306 308 310 309 306 302 299 296 292 286 282 280 276 272 268 266 263 261 259 258 257 257 258 257 256 254 252 251 249 247 247 247 249 252 254 256 256 257
304 303 303 304 304 304 304 305 307 307 305 304 301 296 291 286 283 282 279 275 271 268 265 264 263 261 260 259 259 258 258 257 255 252 250 248 248 250 251 253 254 256 258 259
305 304 303 304 305 304 304 304 305 304 302 301 299 296 292 287 285 284 281 278 274 271 269 268 267 264 262 261 260 259 258 258 256 253 252 251 251 251 253 255 256 258 260 261
Height
5559 5556 5554 5552 5551 5549 5548 5546 5545 5546 5546 5546 5547 5547 5548 5549 5550 5551 5553 5555 5557 5559 5561 5563 5565 5568 5570 5573 5576 5578 5581 5584 5586 5588 5591 5593 5595 5597 5599 5600 5602 5603 5604 5606
5551 5548 5545 5543 5542 5540 5538 5537 5535 5535 5536 5536 5535 5536 5537 5538 5539 5540 5542 5544 5546 5548 5550 5552 5554 5556 5559 5562 5564 5566 5569 5572 5574 5577 5579 5581 5583 5585 5587 5589 5590 5591 5593 5594
5541 5539 5535 5534 5533 5531 5529 5527 5526 5525 5526 5525 5525 5525 5526 5527 5528 5530 5532 5533 5535 5537 5538 5540 5542 5545 5547 5550 5552 5555 5557 5560 5562 5564 5567 5569 5571 5573 5575 5576 5578 5579 5580 5582
5531 5530 5527 5528 5523 5521 5519 5517 5516 5515 5514 5514 5515 5515 5516 5517 5518 5520 5522 5523 5525 5527 5528 5530 5531 5533 5536 5538 5541 5543 5546 5548 5550 5552 5555 5557 5559 5561 5562 5564 5565 5567 5568 5569
5522 5519 5517 5517 5514 5512 5510 5509 5507 5506 5505 5505 5505 5505 5506 5507 5508 5510 5512 5513 5515 5517 5518 5520 5521 5523 5525 5528 5530 5532 5534 5536 5538 5540 5542 5544 5546 5548 5550 5551 5553 5554 5556 5557
5512 5510 5508 5508 5505 5502 5502 5499 5498 5496 5496 5495 5495 5496 5498 5498 5499 5500 5502 5503 5505 5507 5508 5510 5512 5514 5515 5517 5519 5521 5523 5525 5526 5528 5530 5532 5534 5536 5538 5539 5541 5542 5544 5545
5504 5501 5499 5498 5496 5494 5494 5492 5489 5488 5487 5486 5486 5486 5488 5488 5489 5490 5492 5493 5495 5497 5498 5500 5502 5504 5506 5507 5509 5510 5511 5513 5514 5516 5518 5520 5522 5524 5525 5527 5529 5530 5532 5534
5497 5494 5494 5490 5488 5487 5485 5482 5481 5480 5479 5478 5477 5478 5478 5478 5479 5480 5482 5483 5485 5487 5488 5490 5492 5494 5496 5497 5498 5500 5501 5502 5503 5504 5506 5508 5510 5512 5514 5515 5517 5519 5521 5522
5490 5489 5485 5482 5479 5478 5476 5475 5473 5472 5471 5469 5469 5468 5468 5468 5469 5470 5471 5473 5474 5476 5478 5480 5481 5483 5485 5486 5488 5489 5490 5491 5492 5494 5495 5497 5499 5501 5502 5504 5506 5508 5510 5512
5482 5480 5477 5475 5472 5470 5468 5467 5465 5463 5462 5461 5460 5459 5458 5458 5459 5459 5460 5462 5463 5465 5467 5469 5471 5472 5474 5475 5477 5478 5479 5481 5482 5484 5485 5487 5489 5490 5492 5494 5496 5498 5500 5502
5475 5472 5470 5468 5465 5463 5461 5459 5457 5455 5453 5452 5451 5450 5450 5449 5449 5449 5450 5451 5453 5454 5456 5458 5460 5461 5463 5464 5466 5468 5469 5471 5472 5474 5476 5477 5479 5481 5482 5484 5486 5488 5490 5492
5468 5465 5462 5460 5458 5455 5453 5451 5449 5447 5446 5444 5442 5441 5441 5440 5440 5440 5440 5441 5443 5444 5446 5448 5449 5451 5453 5454 5456 5458 5460 5461 5463 5465 5467 5468 5470 5472 5473 5475 5477 5479 5481 5482
5460 5457 5454 5452 5450 5447 5445 5443 5441 5439 5437 5436 5434 5433 5432 5432 5431 5431 5431 5432 5433 5435 5436 5438 5440 5441 5443 5445 5446 5448 5450 5452 5453 5455 5457 5459 5461 5463 5465 5467 5468 5470 5472 5473
5452 5450 5447 5444 5442 5439 5437 5435 5433 5431 5429 5427 5426 5425 5424 5423 5423 5423 5423 5423 5424 5426 5427 5429 5431 5432 5434 5435 5437 5438 5440 5442 5444 5446 5448 5450 5452 5454 5456 5458 5460 5462 5463 5465
5445 5442 5440 5437 5434 5432 5429 5427 5425 5423 5421 5419 5418 5416 5416 5415 5415 5415 5415 5415 5416 5417 5419 5420 5422 5423 5425 5426 5427 5429 5430 5432 5435 5437 5439 5441 5444 5446 5448 5450 5452 5454 5455 5457
5439 5436 5433 5430 5427 5425 5422 5419 5417 5415 5413 5411 5410 5409 5408 5407 5407 5407 5407 5407 5408 5409 5410 5412 5413 5414 5415 5417 5418 5419 5421 5423 5425 5428 5430 5432 5435 5437 5439 5441 5443 5445 5447 5449
5433 5430 5427 5424 5421 5418 5415 5412 5410 5407 5406 5404 5402 5401 5400 5399 5399 5399 5399 5399 5400 5401 5402 5403 5405 5406 5407 5408 5410 5411 5413 5415 5417 5419 5421 5424 5426 5428 5430 5433 5435 5437 5439 5441
5427 5424 5421 5418 5415 5412 5409 5406 5403 5401 5399 5397 5395 5394 5393 5392 5392 5392 5392 5393 5393 5394 5395 5395 5396 5397 5399 5400 5402 5403 5405 5406 5408 5410 5412 5415 5417 5420 5422 5424 5427 5429 5431 5432
5421 5418 5415 5412 5409 5406 5403 5400 5398 5395 5393 5390 5389 5387 5386 5385 5385 5385 5385 5386 5387 5387 5388 5388 5389 5390 5391 5393 5394 5396 5397 5399 5400 5402 5404 5406 5409 5411 5414 5416 5419 5421 5423 5424
5416 5413 5410 5407 5404 5401 5398 5395 5392 5389 5387 5384 5383 5381 5380 5379 5379 5379 5379 5379 5380 5380 5381 5381 5382 5383 5384 5385 5387 5388 5390 5391 5393 5395 5397 5399 5401 5403 5406 5408 5411 5413 5415 5416
5411 5408 5405 5402 5399 5395 5392 5389 5386 5383 5381 5379 5377 5375 5374 5373 5373 5372 5372 5373 5373 5373 5374 5374 5375 5376 5377 5378 5379 5381 5383 5384 5386 5388 5389 5391 5394 5396 5398 5400 5403 5405 5406 5408
5405 5402 5399 5396 5393 5390 5387 5383 5381 5378 5375 5373 5371 5369 5368 5367 5367 5366 5366 5367 5367 5367 5368 5368 5369 5369 5370 5371 5372 5374 5375 5377 5378 5380 5382 5384 5386 5388 5390 5393 5395 5396 5398 5400
5399 5396 5394 5390 5387 5384 5381 5378 5375 5372 5370 5368 5366 5364 5363 5362 5361 5361 5361 5361 5360 5361 5361 5362 5362 5363 5364 5365 5366 5367 5368 5370 5371 5373 5375 5376 5378 5380 5383 5385 5386 5388 5390 5391
5393 5390 5387 5385 5382 5379 5376 5373 5370 5367 5365 5362 5360 5359 5357 5356 5356 5355 5355 5355 5354 5355 5355 5356 5356 5357 5357 5358 5359 5360 5361 5363 5364 5365 5367 5369 5371 5372 5374 5376 5378 5379 5381 5382
5387 5384 5381 5379 5376 5373 5370 5368 5365 5362 5359 5357 5355 5353 5352 5351 5351 5350 5349 5349 5349 5349 5349 5350 5350 5350 5351 5352 5353 5353 5354 5355 5357 5358 5359 5361 5363 5365 5366 5368 5369 5371 5372 5373
5380 5378 5375 5373 5370 5367 5365 5362 5359 5357 5354 5352 5350 5348 5347 5346 5345 5345 5344 5343 5343 5343 5343 5343 5343 5344 5344 5345 5346 5346 5347 5348 5349 5350 5351 5353 5355 5356 5358 5359 5361 5362 5363 5364
5374 5372 5369 5367 5364 5361 5359 5356 5354 5351 5349 5347 5345 5344 5342 5341 5340 5339 5338 5338 5337 5337 5337 5337 5337 5337 5337 5338 5339 5339 5340 5341 5341 5342 5343 5345 5346 5348 5349 5351 5352 5353 5354 5355